Port Isabel, TX

7:05 AM CDT on October 18, 2017 (GMT -0500)
Port Isabel-Cameron County

Weather History for KPIL - August, 2014

Change the Weather History Date:

Tuesday, August 26, 2014

  Actual Average (KBRO) Record (KBRO)
Temperature  
Mean Temperature 85 °F -  
Max Temperature 95 °F 92 °F 100 °F (1919)
Min Temperature 77 °F 73 °F 67 °F (1891)
Cooling Degree Days 20    
Growing Degree Days 35 (Base 50)    
Moisture  
Dew Point 74 °F    
Average Humidity 68    
Maximum Humidity 90    
Minimum Humidity 43    
Precipitation  
Precipitation 0.00 in - - ()
Sea Level Pressure  
Sea Level Pressure 29.92 in    
Wind  
Wind Speed 7 mph (ENE)    
Max Wind Speed 18 mph    
Max Gust Speed 21 mph    
Visibility 9 miles    
Events      
Averages and records for this station are not official NWS values.
T = Trace of Precipitation, MM = Missing Value Source: NWS Daily Summary

Daily Weather History Graph

Daily Weather History Graph

Search for Another Location

Airport or City:

Trip Planner

Search our weather history database for the weather conditions in past years. The results will help you decide how hot, cold, wet, or windy it might be!

Date:

Astronomy

Aug. 26, 2014 Rise Set
Actual Time 7:06 AM CDT 7:55 PM CDT
Civil Twilight 6:43 AM CDT 8:18 PM CDT
Nautical Twilight 6:15 AM CDT 8:46 PM CDT
Astronomical Twilight 5:46 AM CDT 9:14 PM CDT
Moon 7:58 AM CDT (8/26) 8:29 PM CDT (8/26)
Length of Visible Light 13h 35m
Length of Day
12h 48m
New Moon, 1% of the Moon is Illuminated
Aug 26
New Moon
Sep 2
First Quarter
Sep 8
Full
Sep 15
Last Quarter
Sep 24
New

Hourly Weather History & Observations

Time (CDT) Temp. Heat Index Dew Point Humidity Pressure Visibility Wind Dir Wind Speed Gust Speed Precip Events Conditions
12:53 AM 82.9 °F 90.2 °F 75.0 °F 77% 29.92 in 10.0 mi SE 5.8 mph - N/A   Clear
1:53 AM 82.0 °F 89.4 °F 75.9 °F 82% 29.92 in 9.0 mi South 5.8 mph - N/A   Clear
2:53 AM 79.0 °F - 73.9 °F 84% 29.91 in 9.0 mi Calm Calm - N/A   Clear
4:53 AM 78.1 °F - 73.0 °F 84% 29.91 in 9.0 mi NNW 3.5 mph - N/A   Clear
5:53 AM 77.0 °F - 73.0 °F 88% 29.91 in 9.0 mi NW 3.5 mph - N/A   Clear
7:53 AM 78.1 °F - 75.0 °F 90% 29.94 in 6.0 mi Calm Calm - N/A   Clear
8:53 AM 84.9 °F 93.3 °F 75.0 °F 72% 29.95 in 9.0 mi Calm Calm - N/A   Clear
10:53 AM 89.1 °F 94.1 °F 70.0 °F 53% 29.96 in 9.0 mi NE 3.5 mph - N/A   Clear
11:53 AM 91.9 °F 100.7 °F 73.0 °F 54% 29.96 in 9.0 mi East 6.9 mph - N/A   Clear
12:53 PM 93.9 °F 98.6 °F 68.0 °F 43% 29.94 in 9.0 mi East 13.8 mph - N/A   Clear
1:53 PM 93.0 °F 101.9 °F 73.0 °F 52% 29.94 in 9.0 mi ENE 17.3 mph - N/A   Clear
2:53 PM 91.9 °F 97.4 °F 70.0 °F 48% 29.93 in 9.0 mi ENE 18.4 mph - N/A   Clear
3:53 PM 91.0 °F 100.4 °F 73.9 °F 57% 29.91 in 9.0 mi ENE 18.4 mph - N/A   Clear
4:53 PM 91.0 °F 101.6 °F 75.0 °F 59% 29.90 in 9.0 mi NE 15.0 mph 20.7 mph N/A   Clear
5:53 PM 89.1 °F 99.1 °F 75.0 °F 63% 29.90 in 8.0 mi ENE 17.3 mph - N/A   Clear
6:53 PM 87.1 °F 95.4 °F 73.9 °F 65% 29.90 in 8.0 mi ENE 13.8 mph - N/A   Clear
7:53 PM 84.9 °F 92.1 °F 73.9 °F 69% 29.90 in 8.0 mi East 10.4 mph - N/A   Clear
8:53 PM 84.9 °F 94.1 °F 75.9 °F 74% 29.91 in 10.0 mi ENE 9.2 mph - N/A   Clear
9:53 PM 84.9 °F 93.3 °F 75.0 °F 72% 29.92 in 10.0 mi East 8.1 mph - N/A   Clear
10:53 PM 84.0 °F 91.9 °F 75.0 °F 74% 29.93 in 10.0 mi East 6.9 mph - N/A   Clear
11:53 PM 84.0 °F 92.6 °F 75.9 °F 76% 29.93 in 9.0 mi East 3.5 mph - N/A   Partly Cloudy